{"data":{"norad_id":65331,"epoch":"2026-05-25T04:19:47.798112Z","epoch_age_seconds":55848,"freshness":"FRESH","line1":"1 65331U 25189J   26145.18041433  .00019441  00000+0  63629-3 0  9992","line2":"2 65331  53.1597 211.0372 0001497  90.8379 269.2794 15.31716082 42765","mean_motion":15.31716082,"eccentricity":0.0001497,"inclination_deg":53.1597,"raan_deg":211.0372,"arg_perigee_deg":90.8379,"mean_anomaly_deg":269.2794,"bstar":0.00063629,"rev_number":4276,"period_min":94.012200885151,"perigee_km":469.66678633024,"apogee_km":471.71732574962,"semimajor_km":6848.8290560399,"source":"CELESTRAK","updated_at":"2026-05-25T13:38:20.759650Z"}}